[Iaude] MPEC R130: 2016 RR19 [a=1.72,e=0.47,i=2.7,H=28.6]

mpec at mpc.eps.harvard.edu mpec at mpc.eps.harvard.edu
Sat Sep 10 22:31:17 EDT 2016


M.P.E.C. 2016-R130                               Issued 2016 Sept. 11, 02:27 UT
 
     The Minor Planet Electronic Circulars contain information on unusual
         minor planets and routine data on comets.  They are published
    on behalf of Division F of the International Astronomical Union by the
          Minor Planet Center, Smithsonian Astrophysical Observatory,
                          Cambridge, MA 02138, U.S.A.

             Prepared using the Tamkin Foundation Computer Network

                              MPC at CFA.HARVARD.EDU
            URL http://www.minorplanetcenter.net/    ISSN 1523-6714


                                   2016 RR19
 
Observations:
     K16R19R* C2016 09 06.24204 22 58 56.95 +25 13 51.5          19.9 VqER130G96
     K16R19R  C2016 09 06.24860 22 59 11.30 +25 11 20.7          20.0 VqER130G96
     K16R19R  C2016 09 06.26183 22 59 39.75 +25 06 19.0          19.8 VqER130G96
     K16R19R  C2016 09 06.32169 23 01 43.44 +24 43 48.5          20.1 VqER130G96
     K16R19R  C2016 09 06.32885 23 01 57.70 +24 41 08.9          20.4 VqER130G96
     K16R19R  C2016 09 06.33598 23 02 11.85 +24 38 30.4          20.1 VqER130G96
     K16R19R  C2016 09 07.01372 23 21 04.39 +21 22 08.2          22.1 VSER130033
     K16R19R  C2016 09 07.01575 23 21 06.62 +21 21 41.0          22.0 VSER130033
     K16R19R  C2016 09 07.01779 23 21 08.88 +21 21 13.3          22.2 VSER130033
     K16R19R  C2016 09 07.01984 23 21 11.12 +21 20 45.7          22.1 VSER130033
     K16R19R  C2016 09 07.08470 23 22 21.18 +21 06 23.4          20.9 VSER130033
     K16R19R  C2016 09 07.08674 23 22 23.40 +21 05 56.2          21.3 VSER130033
     K16R19R  C2016 09 07.08877 23 22 25.55 +21 05 29.5          21.2 VSER130033
     K16R19R  C2016 09 07.09082 23 22 27.74 +21 05 02.9          20.4 VSER130033
     K16R19R  C2016 09 07.09286 23 22 29.94 +21 04 36.0          20.9 VSER130033
     K16R19R  C2016 09 09.32117 23 46 32.60 +16 34 57.8          22.1 VqER130G96
     K16R19R  C2016 09 09.32192 23 46 32.72 +16 34 54.2          21.5 VqER130G96
     K16R19R  C2016 09 09.32268 23 46 32.91 +16 34 51.5          21.9 VqER130G96
     K16R19R  C2016 09 09.32344 23 46 33.14 +16 34 47.1          21.8 VqER130G96
     K16R19R KC2016 09 09.43979 23 47 01.53 +16 26 33.0                oER130291
     K16R19R KC2016 09 09.44620 23 47 03.16 +16 26 04.8          22.4 RoER130291
     K16R19R KC2016 09 09.45264 23 47 04.77 +16 25 37.2          22.7 RoER130291
     K16R19R  C2016 09 10.33987 23 51 23.27 +15 34 32.3          23.2 VqER130G96
     K16R19R  C2016 09 10.34206 23 51 23.63 +15 34 27.1          22.1 VqER130G96
     K16R19R  C2016 09 10.34421 23 51 23.94 +15 34 20.9          21.6 VqER130G96
 
Observer details:
033 Karl Schwarzschild Observatory, Tautenburg.  Observers B. Stecklum,
    C. Hoegner.  Measurer B. Stecklum.  1.34-m f/3 Schmidt + CCD.
291 LPL/Spacewatch II.  Observer J. V. Scotti.  1.8-m f/2.7 reflector + CCD.
G96 Mt. Lemmon Survey.  Observers D. C. Fuls, A. R. Gibbs.  Measurers
    E. J. Christensen, D. C. Fuls, A. R. Gibbs, A. D. Grauer, J. A. Johnson,
    R. A. Kowalski, S. M. Larson, G. J. Leonard, R. G. Matheny, R. L. Seaman,
    F. C. Shelly.  1.5-m reflector + 10K CCD.
 
Orbital elements:
2016 RR19                                                Earth MOID = 0.0042 AU
Epoch 2016 July 31.0 TT = JDT 2457600.5                 MPC
M   0.51189              (2000.0)            P               Q
n   0.43841278     Peri.  317.95141     +0.41932623     +0.90764391
a   1.7161184      Node   336.82195     -0.81978561     +0.36974772
e   0.4727012      Incl.    2.71679     -0.39002188     +0.19866845
P   2.25           H   28.6           G   0.15           U   6
Residuals in seconds of arc
160906 G96  0.1-  0.0     160907 033  0.0   0.1-    160909 G96  0.0   0.3-
160906 G96  0.3+  0.2-    160907 033  0.4-  0.0     160909 291  0.2+  0.2+
160906 G96  0.4-  0.8+    160907 033  0.2+  0.4-    160909 291  0.4+  0.3-
160906 G96  0.4+  0.2+    160907 033  0.1-  0.4-    160909 291  0.1-  0.0
160906 G96  0.0   0.0     160907 033  0.1-  0.1-    160910 G96  0.2-  1.3-
160906 G96  0.2+  0.2-    160907 033  0.2+  0.3-    160910 G96  0.3+  0.1+
160907 033  0.2-  0.0     160909 G96  0.1+  0.8+    160910 G96  0.2+  0.4+
160907 033  0.2-  0.1+    160909 G96  0.7-  0.4+
160907 033  0.1+  0.1-    160909 G96  0.6-  0.9+

Ephemeris:
2016 RR19                a,e,i = 1.72, 0.47, 3                   q = 0.9049
Date    TT    R. A. (2000) Decl.     Delta      r     Elong.  Phase     V
2016 08 12    12 11 05.2 -08 46 02   0.1466  0.9195    46.9   126.4    29.6
...
2016 08 27    12 28 18.9 -07 34 59   0.05188 0.9687    35.8   142.4    29.3
...
2016 09 04    15 30 18.5 +28 39 46   0.0054001.0065    68.6   111.1    21.5
...
2016 09 10    23 49 58.4 +15 53 40   0.03461 1.0390   157.3    21.9    22.4
2016 09 11    23 53 44.1 +15 05 49   0.04073 1.0446   158.4    20.8    22.8
2016 09 12    23 56 28.6 +14 29 39   0.04688 1.0504   159.4    19.7    23.1
...
2016 09 18    00 04 04.3 +12 33 52   0.08445 1.0864   164.6    14.2    24.2
...
2016 09 26    00 06 59.7 +11 19 28   0.1369  1.1376   169.9     8.9    25.2
...
2016 10 11    00 09 52.3 +09 54 25   0.2475  1.2397   165.8    11.4    26.7

A. U. Tomatic                (C) Copyright 2016 MPC           M.P.E.C. 2016-R130




More information about the Iaude mailing list